Weather History for Crestview, FL

Change the Weather History Date:

Thursday, February 21, 2013

  Actual Average Record
Temperature  
Mean Temperature 50 °F -  
Max Temperature 69 °F 70 °F 80 °F (1981)
Min Temperature 30 °F 50 °F 24 °F (2009)
Degree Days  
Heating Degree Days 16    
Moisture  
Dew Point 42 °F    
Average Humidity 67    
Maximum Humidity 94    
Minimum Humidity 31    
Precipitation  
Precipitation 0.00 in - - ()
Sea Level Pressure  
Sea Level Pressure 30.04 in    
Wind  
Wind Speed 3 mph (ESE)    
Max Wind Speed 9 mph    
Max Gust Speed 18 mph    
Visibility 9 miles    
Events      
Averages and records for this station are not official NWS values.
T = Trace of Precipitation, MM = Missing Value Source: NWS Daily Summary

Daily Weather History Graph

Daily Weather History Graph

Search for Another Location

Airport:

Trip Planner

Search our weather history database for the weather conditions in past years. The results will help you decide how hot, cold, wet, or windy it might be!

Date:

Astronomy

Feb. 21, 2013 Rise Set
Actual Time 6:20 AM CST 5:38 PM CST
Civil Twilight 5:56 AM CST 6:03 PM CST
Nautical Twilight 5:28 AM CST 6:31 PM CST
Astronomical Twilight 5:00 AM CST 6:59 PM CST
Moon 2:03 PM CST (2/21) 3:14 AM CST (2/21)
Length of Visible Light 12h 07m
Length of Day
11h 18m
Waxing Gibbous, 84% of the Moon is Illuminated
Feb 21
Waxing Gibbous
Feb 25
Full
Mar 4
Last Quarter
Mar 11
New
Mar 19
First Quarter

Hourly Weather History & Observations

Time (CST) Temp. Windchill Dew Point Humidity Pressure Visibility Wind Dir Wind Speed Gust Speed Precip Events Conditions
12:53 AM 34.0 °F - 30.0 °F 85% 30.11 in 10.0 mi Calm Calm - N/A   Clear
1:53 AM 33.1 °F - 28.9 °F 85% 30.12 in 10.0 mi Calm Calm - N/A   Clear
2:53 AM 30.9 °F - 28.0 °F 89% 30.08 in 10.0 mi Calm Calm - N/A   Clear
3:53 AM 32.0 °F 28.7 °F 28.9 °F 88% 30.08 in 10.0 mi ENE 3.5 mph - N/A   Clear
4:53 AM 33.1 °F - 30.0 °F 89% 30.09 in 10.0 mi Calm Calm - N/A   Clear
5:53 AM 36.0 °F 33.3 °F 30.0 °F 79% 30.11 in 10.0 mi NE 3.5 mph - N/A   Clear
6:53 AM 39.9 °F 35.1 °F 30.0 °F 68% 30.11 in 10.0 mi ENE 6.9 mph - N/A   Mostly Cloudy
7:53 AM 44.1 °F 40.8 °F 30.9 °F 60% 30.14 in 10.0 mi East 5.8 mph - N/A   Partly Cloudy
8:53 AM 48.9 °F - 30.0 °F 48% 30.14 in 10.0 mi East 6.9 mph - N/A   Clear
9:53 AM 55.9 °F - 32.0 °F 40% 30.14 in 10.0 mi ENE 4.6 mph - N/A   Overcast
10:53 AM 62.1 °F - 30.9 °F 31% 30.11 in 10.0 mi Variable 4.6 mph - N/A   Mostly Cloudy
11:53 AM 63.0 °F - 34.0 °F 34% 30.06 in 10.0 mi SE 9.2 mph - N/A   Scattered Clouds
12:53 PM 69.1 °F - 39.0 °F 33% 30.03 in 10.0 mi SE 8.1 mph - N/A   Clear
1:53 PM 68.0 °F - 42.1 °F 39% 30.00 in 10.0 mi SE 4.6 mph - N/A   Clear
2:53 PM 68.0 °F - 43.0 °F 40% 29.99 in 4.0 mi Variable 5.8 mph - N/A   Haze
3:53 PM 68.0 °F - 48.0 °F 49% 29.98 in 10.0 mi South 5.8 mph 16.1 mph N/A   Clear
4:53 PM 66.0 °F - 48.9 °F 54% 29.97 in 10.0 mi Variable 5.8 mph 18.4 mph N/A   Clear
5:53 PM 64.9 °F - 52.0 °F 63% 29.97 in 10.0 mi SE 3.5 mph - N/A   Clear
6:53 PM 63.0 °F - 53.1 °F 70% 29.97 in 10.0 mi SE 4.6 mph - N/A   Clear
7:53 PM 63.0 °F - 54.0 °F 72% 29.99 in 10.0 mi Calm Calm - N/A   Clear
8:30 PM 62.6 °F - 55.4 °F 77% 29.99 in 10.0 mi South 5.8 mph - N/A   Mostly Cloudy
8:53 PM 62.1 °F - 57.9 °F 86% 29.99 in 10.0 mi SSE 6.9 mph - N/A   Mostly Cloudy
9:53 PM 63.0 °F - 59.0 °F 87% 29.97 in 9.0 mi SSE 8.1 mph - N/A   Overcast
10:53 PM 64.0 °F - 61.0 °F 90% 29.99 in 6.0 mi Variable 5.8 mph - N/A   Overcast
11:48 PM 64.4 °F - 62.6 °F 94% 29.97 in 7.0 mi SE 5.8 mph - N/A   Overcast
11:53 PM 64.9 °F - 62.1 °F 90% 29.97 in 8.0 mi SE 6.9 mph - N/A   Overcast